[[{"header":{"parameterUnit":"m.s-1","parameterCategory":1,"la1":30.2991,"la2":30.254,"lo1":-89.0895,"lo2":-89.0444,"dy":0.0017,"dx":0.0017,"nx":28,"ny":28,"refTime":"2025-09-13T21:00:00:Z","depth":0,"parameterNumber":2,"parameterNumberName":"U-component_of_WINDS"},"data":[0,0,0,0,0,0,0,0,0,0,0,0,0,0,0,0,0,0,0,0,0,0,0,0,0,0,0,0,0,0,0,0,0,0,0,0,0,0,0,0,0,0,0,0,0,0,0,0,0,0,0,0,0,0,0,0,0,0,0.266,0.2661,0,0.2813,0.2815,0.2817,0.289,0.289,0.2889,0.2889,0.3049,0.3053,0.3057,0,0,0,0,0,0,0,0,0,0,0,0,0,0.2429,0.2432,0.266,0.2662,0.2663,0.2813,0.2815,0.2817,0.289,0.289,0.2889,0.2889,0.3047,0.3052,0.3058,0,0,0,0,0,0,0,0,0,0,0,0,0,0.255,0.2434,0.2659,0.2717,0.2724,0.2813,0.2815,0.2818,0.289,0.289,0.2889,0.2889,0.3046,0.3052,0.3058,0.3101,0,0,0.3078,0.3081,0,0,0,0,0,0,0,0,0.2543,0.2559,0.2707,0.2714,0.2721,0.2832,0.2792,0.2913,0.289,0.2827,0.2889,0.2889,0.2977,0.2989,0.3018,0.3109,0.3115,0.3079,0.3083,0.3085,0.3087,0,0,0,0,0,0,0,0.2535,0.2552,0.2721,0.2709,0.2718,0.2736,0.2753,0.2816,0.2901,0.2832,0.2838,0.2855,0.2981,0.3012,0.3023,0.3118,0.3079,0.3084,0.3088,0.3091,0.3249,0.3249,0,0,0,0,0,0,0.2517,0.2545,0.2716,0.2725,0.263,0.274,0.2759,0.2797,0.29,0.2916,0.2855,0.2858,0.3001,0.3015,0.3028,0.3084,0.3085,0.3091,0.3095,0.3249,0.3249,0.3249,0,0,0,0,0,0,0.2511,0.2531,0.271,0.2637,0.2661,0.2744,0.2786,0.28,0.2831,0.2917,0.2933,0.2871,0.3001,0.3019,0.3082,0.3091,0.3094,0.31,0.3248,0.3249,0.3249,0.3197,0,0,0,0,0,0,0.2505,0.2529,0.2546,0.2636,0.2664,0.276,0.2786,0.2803,0.2842,0.2847,0.2937,0.2951,0.3003,0.3072,0.3088,0.31,0.3105,0.3248,0.3249,0.3249,0.3198,0.3196,0.3193,0,0,0,0,0,0.2496,0.2526,0.2547,0.2567,0.2688,0.2761,0.2777,0.2834,0.2842,0.286,0.2915,0.2949,0.3087,0.3078,0.3097,0.3111,0.3248,0.3248,0.3249,0.3199,0.3196,0.3193,0,0,0,0,0,0,0.2436,0.2539,0.2563,0.2623,0.2682,0.2773,0.2797,0.2829,0.2888,0.2891,0.296,0.298,0.3036,0.308,0.3067,0.3156,0.317,0.3175,0.3126,0.3124,0.3121,0.311,0.3111,0,0,0,0,0,0.243,0.248,0.2568,0.2612,0.2641,0.2713,0.2748,0.2786,0.2851,0.2877,0.2937,0.2998,0.3055,0.3092,0.315,0.3204,0.3225,0.3223,0.3221,0.3218,0.3221,0.3252,0.3252,0.3252,0.3252,0.3252,0,0,0.2417,0.248,0.2508,0.2602,0.2652,0.2703,0.2734,0.2787,0.2825,0.2885,0.2947,0.2993,0.3066,0.3125,0.3154,0.3163,0.3226,0.3219,0.3216,0.3221,0.3253,0.3253,0.3253,0.3252,0.3252,0.3252,0,0,0.2421,0.2473,0.2516,0.2565,0.264,0.2688,0.2698,0.2783,0.2816,0.2879,0.2924,0.2971,0.3068,0.3118,0.3156,0.3175,0.3208,0.3192,0.3179,0.3208,0.3208,0.3209,0.3215,0.3216,0.3195,0.3195,0.3195,0,0.2396,0.2474,0.2534,0.2583,0.2623,0.2677,0.272,0.2766,0.2856,0.2882,0.2891,0.3013,0.3066,0.3136,0.314,0.317,0.3183,0.3183,0.3203,0.3205,0.3206,0.3212,0.3215,0.3192,0.3192,0.3193,0.3193,0,0.244,0.2493,0.2518,0.2603,0.2645,0.2691,0.2757,0.2792,0.2827,0.2873,0.2936,0.3002,0.3073,0.3092,0.3127,0.3167,0.317,0.319,0.3206,0.3202,0.321,0.3213,0.3189,0.319,0.319,0.3191,0,0,0.2412,0.2527,0.2535,0.2573,0.2659,0.2702,0.2749,0.2818,0.2846,0.2906,0.2948,0.3027,0.3046,0.3089,0.313,0.3155,0.3165,0.3172,0.3175,0.3168,0.3211,0.3195,0.3198,0.3186,0.3187,0.3187,0.3205,0,0.2427,0.2515,0.2569,0.2635,0.2684,0.2735,0.2777,0.2834,0.2878,0.2926,0.2975,0.303,0.3051,0.3077,0.3104,0.3158,0.3174,0.3157,0.3225,0.3227,0.3206,0.3202,0.3186,0.3199,0.3208,0.3209,0.3209,0,0.2458,0.2515,0.2585,0.2664,0.2686,0.2723,0.2789,0.2834,0.2899,0.2929,0.2975,0.3016,0.3068,0.3077,0.3149,0.3136,0.3167,0.3197,0.3199,0.3208,0.3218,0.321,0.3205,0.3207,0.3214,0.3214,0.3214,0,0.2429,0.2524,0.2578,0.2609,0.2702,0.2726,0.2766,0.2831,0.2868,0.2926,0.295,0.3013,0.3047,0.3095,0.3151,0.3153,0.3217,0.3232,0.3243,0.3242,0.3255,0.3254,0.3254,0.3274,0.3274,0.3274,0.3274,0,0.2441,0.2482,0.2566,0.26,0.2647,0.2707,0.2752,0.2796,0.2853,0.2895,0.2944,0.2982,0.3054,0.3101,0.3145,0.3197,0.3213,0.3238,0.325,0.3234,0.3231,0.3256,0.3256,0.3275,0.3275,0.3275,0.3274,0,0.2418,0.2476,0.2539,0.2621,0.2642,0.2673,0.2744,0.2777,0.2823,0.2876,0.2892,0.2964,0.3022,0.3082,0.3161,0.319,0.3241,0.3256,0.3218,0.3225,0.3232,0.3231,0.325,0.3255,0.327,0.327,0.327,0,0.2422,0.2455,0.254,0.2571,0.2609,0.266,0.2697,0.2757,0.2794,0.2869,0.2893,0.2954,0.3007,0.3097,0.3156,0.3216,0.3234,0.3236,0.3243,0.3226,0.3233,0.3231,0.3234,0.3234,0.3233,0.3233,0.3233,0,0.2423,0.2449,0.2501,0.2562,0.2605,0.2656,0.2709,0.2732,0.2802,0.2841,0.29,0.2941,0.302,0.308,0.3146,0.3188,0.3222,0.3229,0.3235,0.322,0.3197,0.3209,0.3212,0.3229,0.323,0.323,0.323,0.323,0.2414,0.2444,0.2508,0.2563,0.2609,0.2657,0.2692,0.2741,0.2792,0.286,0.2893,0.2951,0.3014,0.3107,0.3147,0.3193,0.3203,0.3212,0.3214,0.3215,0.3211,0.3188,0.3206,0.3206,0.3206,0.3206,0.3206,0,0.2416,0.2459,0.2509,0.2581,0.2624,0.2651,0.2711,0.2745,0.2796,0.2851,0.29,0.2967,0.3025,0.3088,0.3149,0.3174,0.3191,0.3188,0.3187,0.3196,0.3199,0.3188,0.3173,0.3173,0.3173,0.3173,0.3173,0.3173,0.2423,0.2475,0.2509,0.2584,0.2627,0.2685,0.2716,0.276,0.2804,0.2876,0.2924,0.2964,0.3022,0.3087,0.3141,0.3158,0.3178,0.317,0.3191,0.3193,0.3196,0.3198,0.3188,0.3174,0.3174,0.3185,0.3185,0.3185]},{"header":{"parameterUnit":"m.s-1","parameterCategory":1,"la1":30.2991,"la2":30.254,"lo1":-89.0895,"lo2":-89.0444,"dy":0.0017,"dx":0.0017,"nx":28,"ny":28,"refTime":"2025-09-13T21:00:00:Z","depth":0,"parameterNumber":3,"parameterNumberName":"V-component_of_WINDS"},"data":[0,0,0,0,0,0,0,0,0,0,0,0,0,0,0,0,0,0,0,0,0,0,0,0,0,0,0,0,0,0,0,0,0,0,0,0,0,0,0,0,0,0,0,0,0,0,0,0,0,0,0,0,0,0,0,0,0,0,2.4622,2.4622,0,2.4634,2.4634,2.4634,2.4654,2.4654,2.4655,2.4655,2.4664,2.4664,2.4664,0,0,0,0,0,0,0,0,0,0,0,0,0,2.4611,2.4611,2.4622,2.4622,2.4622,2.4634,2.4634,2.4634,2.4654,2.4654,2.4655,2.4655,2.4664,2.4664,2.4664,0,0,0,0,0,0,0,0,0,0,0,0,0,2.4619,2.4611,2.4622,2.4634,2.4635,2.4634,2.4634,2.4635,2.4654,2.4654,2.4655,2.4655,2.4664,2.4664,2.4664,2.4652,0,0,2.4664,2.4664,0,0,0,0,0,0,0,0,2.4618,2.4619,2.4632,2.4633,2.4634,2.4643,2.4634,2.464,2.4654,2.4646,2.4655,2.4656,2.4657,2.4657,2.4658,2.4653,2.4653,2.4664,2.4664,2.4663,2.4663,0,0,0,0,0,0,0,2.4618,2.4619,2.4627,2.4632,2.4633,2.4637,2.4638,2.4635,2.4648,2.4647,2.4648,2.465,2.4657,2.4658,2.4658,2.4653,2.4664,2.4664,2.4663,2.4663,2.4636,2.4635,0,0,0,0,0,0,2.4616,2.4618,2.4626,2.4627,2.4627,2.4636,2.4638,2.464,2.4648,2.465,2.4649,2.4651,2.4658,2.4659,2.4659,2.4644,2.4663,2.4663,2.4663,2.4636,2.4635,2.4635,0,0,0,0,0,0,2.4616,2.4617,2.4626,2.4623,2.4624,2.4636,2.4637,2.464,2.4641,2.465,2.4652,2.4648,2.4659,2.4659,2.4653,2.4644,2.4663,2.4663,2.4637,2.4636,2.4635,2.4614,0,0,0,0,0,0,2.4615,2.4616,2.4613,2.4623,2.4625,2.4622,2.4637,2.4639,2.4641,2.4642,2.4649,2.4651,2.4659,2.4653,2.4653,2.4644,2.4663,2.4638,2.4637,2.4635,2.4616,2.4612,2.461,0,0,0,0,0,2.4615,2.4607,2.4613,2.4614,2.4621,2.4621,2.4622,2.4632,2.464,2.4636,2.4641,2.4651,2.4645,2.4653,2.4653,2.4644,2.4638,2.4637,2.4635,2.4617,2.4613,2.461,0,0,0,0,0,0,2.4596,2.4609,2.4615,2.4611,2.4615,2.4624,2.462,2.4628,2.4629,2.4631,2.4642,2.4644,2.4636,2.4639,2.4647,2.4631,2.4643,2.4642,2.4629,2.4626,2.4623,2.4621,2.4663,0,0,0,0,0,2.4591,2.4591,2.4602,2.4596,2.4598,2.4608,2.4609,2.4616,2.462,2.4622,2.4627,2.463,2.4628,2.4627,2.4627,2.4616,2.4616,2.461,2.4607,2.4605,2.4603,2.4594,2.459,2.463,2.463,2.463,0,0,2.4581,2.4588,2.4587,2.4593,2.4597,2.4595,2.461,2.4608,2.4606,2.4621,2.4616,2.462,2.4623,2.4614,2.4611,2.4617,2.4592,2.4603,2.4601,2.46,2.4592,2.4588,2.4585,2.4629,2.4629,2.4629,0,0,2.4562,2.4568,2.4563,2.4566,2.4572,2.4579,2.4577,2.4586,2.4589,2.4584,2.4594,2.4591,2.459,2.4591,2.4591,2.457,2.4577,2.4569,2.4553,2.4545,2.4542,2.4539,2.4529,2.4525,2.4567,2.4567,2.4567,0,2.4548,2.4547,2.4559,2.4556,2.4557,2.4571,2.4564,2.4567,2.4572,2.4571,2.4578,2.4574,2.4578,2.4568,2.4563,2.4563,2.456,2.4568,2.4542,2.4539,2.4536,2.4527,2.4523,2.4566,2.4566,2.4566,2.4566,0,2.4529,2.4528,2.4523,2.4527,2.4528,2.4523,2.4532,2.4531,2.4537,2.4543,2.4535,2.454,2.4539,2.4538,2.4545,2.4528,2.4531,2.454,2.4552,2.4531,2.4522,2.4519,2.4564,2.4565,2.4565,2.4565,0,0,2.4499,2.4509,2.4507,2.4508,2.4514,2.4512,2.4507,2.4507,2.4504,2.4506,2.45,2.4497,2.4505,2.4505,2.4512,2.4505,2.4483,2.4514,2.4514,2.4506,2.4462,2.4454,2.445,2.4489,2.4488,2.4488,2.4461,0,2.448,2.4472,2.4482,2.4471,2.4468,2.4481,2.4475,2.4478,2.4482,2.4478,2.4483,2.4479,2.4491,2.449,2.4484,2.4488,2.4474,2.449,2.4481,2.4481,2.4478,2.4445,2.4438,2.4412,2.4458,2.4457,2.4457,0,2.4457,2.4457,2.4447,2.4451,2.445,2.4446,2.4445,2.4443,2.4444,2.4447,2.4446,2.4454,2.4446,2.4459,2.4447,2.4457,2.4454,2.4455,2.4454,2.4452,2.4466,2.444,2.4404,2.4399,2.4452,2.4452,2.4452,0,2.4433,2.4431,2.4424,2.4425,2.443,2.4426,2.4428,2.443,2.4429,2.4427,2.4426,2.4424,2.4422,2.4419,2.4424,2.4434,2.4411,2.4425,2.4411,2.441,2.4404,2.4404,2.4365,2.4406,2.4406,2.4406,2.4406,0,2.4409,2.4402,2.4413,2.4408,2.4399,2.4409,2.4399,2.4402,2.4403,2.4398,2.4408,2.4402,2.4411,2.4406,2.441,2.4398,2.4398,2.4398,2.4399,2.4396,2.4395,2.4393,2.4394,2.4405,2.4405,2.4405,2.4405,0,2.4381,2.4389,2.4381,2.4387,2.4388,2.438,2.4384,2.4379,2.4383,2.4375,2.4374,2.438,2.4374,2.4379,2.4373,2.4376,2.4359,2.4363,2.4358,2.4359,2.4344,2.4344,2.43,2.4293,2.434,2.434,2.4339,0,2.4365,2.4359,2.4364,2.4361,2.4362,2.4358,2.4356,2.4365,2.4362,2.4361,2.4355,2.435,2.4346,2.4334,2.4337,2.4331,2.4334,2.4319,2.4333,2.433,2.4331,2.433,2.4328,2.4315,2.4315,2.4315,2.4314,0,2.4335,2.4338,2.4336,2.4333,2.4331,2.4329,2.4328,2.4325,2.4334,2.4329,2.4323,2.432,2.4313,2.4306,2.4301,2.4301,2.4307,2.431,2.4306,2.4302,2.4298,2.4297,2.4348,2.431,2.4311,2.4311,2.4311,2.4311,2.4311,2.4305,2.4307,2.4302,2.4302,2.4301,2.4295,2.4298,2.4293,2.4289,2.4293,2.4285,2.4283,2.4277,2.4276,2.4267,2.4273,2.4269,2.4267,2.4265,2.4261,2.4301,2.4267,2.4267,2.4267,2.4267,2.4267,0,2.4279,2.428,2.4276,2.4274,2.427,2.4278,2.4277,2.4272,2.4265,2.4263,2.4258,2.4249,2.4242,2.4243,2.4236,2.4229,2.4231,2.4226,2.4226,2.4225,2.4258,2.4261,2.4224,2.4224,2.4224,2.4224,2.4224,2.4224,2.4262,2.4252,2.4255,2.4244,2.4245,2.4237,2.4235,2.4232,2.423,2.422,2.4214,2.4215,2.4214,2.4206,2.4198,2.4199,2.4194,2.4187,2.4189,2.4219,2.4223,2.4227,2.423,2.4187,2.4187,2.4156,2.4156,2.4156]}]]